STARLINK-35816 (66499 NORAD) Tracking and Keplerian Element Data

This shows tracking and keplerian element data for the satellite.

Feedback or suggestion? Click here.




ElementValue
Catalog66499
NameSTARLINK-35816
Epoch Orbit667
Epoch Day353.95404897
Epoch Year2025
RAAN83.663
Inclination43.0028
Eccentricity0.0001115
Argument of Perigee274.0612
Mean Anonmoly86.0117
Mean Motion15.40706319
Decay Rate0.00024672
L11 66499U 25263Q 25353.95404897 .00024672 00000+0 59585-3 0 9991
L22 66499 43.0028 83.6630 0001115 274.0612 86.0117 15.40706319 6677



Live tracking and technical data element details for STARLINK-35816 (NORAD 66499). STARLINK-35816 can be tracked NOW for your location showing map with azimuth and elevation plus other details from your city location.







IsCatalogInMostPopularTable: catalog: 66499, numindb: 3
Update: records affected: 1



GetName: 66499 STARLINK-35816

Hit Count: updated at: Tue, 10 Feb 2026 02:20:33 GMT